Sarasota, FL

6:00 PM EDT on May 26, 2017 (GMT -0400)
Sarasota-bradenton

Weather History for KSRQ - January, 2001

Change the Weather History Date:

Monday, January 1, 2001

  Actual Average Record
Temperature  
Mean Temperature 44 °F 61 °F  
Max Temperature 57 °F 71 °F 85 °F (1991)
Min Temperature 30 °F 52 °F 30 °F (2001)
Degree Days  
Heating Degree Days 22 5  
Month to date heating degree days 5  
Since 1 July heating degree days 160  
Cooling Degree Days 0 2  
Month to date cooling degree days 2  
Year to date cooling degree days 2  
Moisture  
Dew Point 32 °F    
Average Humidity 68    
Maximum Humidity 92    
Minimum Humidity 29    
Precipitation  
Precipitation 0.00 in 0.12 in 5.59 in (2006)
Month to date precipitation 0.12  
Year to date precipitation 0.12  
Sea Level Pressure  
Sea Level Pressure 30.33 in    
Wind  
Wind Speed 5 mph (NE)    
Max Wind Speed 12 mph    
Max Gust Speed -    
Visibility 10 miles    
Events      
T = Trace of Precipitation, MM = Missing Value Source: NWS Daily Summary

Daily Weather History Graph

Daily Weather History Graph

Search for Another Location

Airport or City:

Trip Planner

Search our weather history database for the weather conditions in past years. The results will help you decide how hot, cold, wet, or windy it might be!

Date:

Astronomy

Jan. 01, 2001 Rise Set
Actual Time 7:20 AM EST 5:47 PM EST
Civil Twilight 6:54 AM EST 6:13 PM EST
Nautical Twilight 6:25 AM EST 6:42 PM EST
Astronomical Twilight 5:57 AM EST 7:10 PM EST
Moon 11:54 AM EST (1/1) 11:55 PM EST (1/1)
Length of Visible Light 11h 18m
Length of Day
10h 27m
Waxing Crescent, 38% of the Moon is Illuminated
Jan 1
Waxing Crescent
Jan 2
First Quarter
Jan 9
Full
Jan 16
Last Quarter
Jan 24
New

Hourly Weather History & Observations

Time (EST) Temp. Windchill Dew Point Humidity Pressure Visibility Wind Dir Wind Speed Gust Speed Precip Events Conditions
12:53 AM 34.0 °F 31.0 °F 32.0 °F 92% 30.33 in 7.0 mi NNE 3.5 mph - N/A   Clear
1:53 AM 30.0 °F 25.2 °F 28.0 °F 92% 30.33 in 7.0 mi East 4.6 mph - N/A   Clear
2:53 AM 30.9 °F 27.5 °F 28.9 °F 92% 30.32 in 8.0 mi East 3.5 mph - N/A   Clear
3:53 AM 32.0 °F 28.7 °F 30.0 °F 92% 30.31 in 10.0 mi East 3.5 mph - N/A   Clear
4:53 AM 33.1 °F 26.9 °F 30.0 °F 89% 30.29 in 10.0 mi ENE 6.9 mph - N/A   Clear
5:53 AM 33.1 °F 30.0 °F 28.9 °F 85% 30.32 in 10.0 mi NE 3.5 mph - N/A   Clear
6:53 AM 33.1 °F 30.0 °F 30.9 °F 92% 30.35 in 10.0 mi NE 3.5 mph - N/A   Clear
7:53 AM 33.1 °F 28.7 °F 30.0 °F 89% 30.37 in 9.0 mi NNE 4.6 mph - N/A   Clear
8:53 AM 39.0 °F 32.8 °F 28.9 °F 67% 30.39 in 10.0 mi NE 9.2 mph - N/A   Clear
9:53 AM 44.1 °F 38.6 °F 25.0 °F 47% 30.40 in 10.0 mi NE 10.4 mph - N/A   Clear
10:53 AM 48.0 °F - 23.0 °F 37% 30.38 in 10.0 mi ENE 11.5 mph - N/A   Clear
11:53 AM 52.0 °F - 23.0 °F 32% 30.36 in 10.0 mi NNE 6.9 mph - N/A   Clear
12:53 PM 54.0 °F - 25.0 °F 33% 30.32 in 10.0 mi Variable 5.8 mph - N/A   Clear
1:53 PM 55.9 °F - 25.0 °F 30% 30.30 in 10.0 mi North 4.6 mph - N/A   Clear
2:53 PM 57.0 °F - 25.0 °F 29% 30.29 in 10.0 mi Variable 3.5 mph - N/A   Clear
3:53 PM 57.0 °F - 35.1 °F 44% 30.28 in 10.0 mi Variable 5.8 mph - N/A   Clear
4:53 PM 55.9 °F - 32.0 °F 40% 30.28 in 10.0 mi NNE 3.5 mph - N/A   Clear
5:53 PM 51.1 °F - 37.0 °F 59% 30.29 in 10.0 mi North 6.9 mph - N/A   Clear
6:53 PM 48.0 °F - 39.0 °F 71% 30.31 in 10.0 mi North 3.5 mph - N/A   Clear
7:53 PM 46.9 °F - 41.0 °F 80% 30.32 in 10.0 mi North 3.5 mph - N/A   Clear
8:53 PM 48.0 °F - 42.1 °F 80% 30.33 in 10.0 mi NNE 4.6 mph - N/A   Clear
9:53 PM 46.9 °F - 42.1 °F 83% 30.34 in 10.0 mi NNE 6.9 mph - N/A   Clear
10:53 PM 46.9 °F - 41.0 °F 80% 30.35 in 10.0 mi NNE 6.9 mph - N/A   Clear
11:53 PM 45.0 °F 41.8 °F 41.0 °F 86% 30.34 in 10.0 mi NNE 5.8 mph - N/A   Clear